Weather History for KMLU - December, 2013

Change the Weather History Date:

Saturday, December 7, 2013

  Actual Average Record
Temperature  
Mean Temperature 32 °F 50 °F  
Max Temperature 34 °F 61 °F 80 °F (1966)
Min Temperature 30 °F 39 °F 19 °F (1950)
Degree Days  
Heating Degree Days 33 16  
Month to date heating degree days 80 104  
Since 1 July heating degree days 560 476  
Cooling Degree Days 0 0  
Month to date cooling degree days 9 0  
Year to date cooling degree days 2442 2508  
Moisture  
Dew Point 26 °F    
Average Humidity 81    
Maximum Humidity 92    
Minimum Humidity 69    
Precipitation  
Precipitation T in 0.17 in 2.42 in (1935)
Month to date precipitation 0.93 1.22  
Year to date precipitation 47.98 49.95  
Snow  
Snow 0.00 in - - ()
Month to date snowfall 0.0  
Since 1 July snowfall 0.0  
Snow Depth 0.00 in    
Sea Level Pressure  
Sea Level Pressure 30.41 in    
Wind  
Wind Speed 11 mph (NNE)    
Max Wind Speed 18 mph    
Max Gust Speed 25 mph    
Visibility 9 miles    
Events      
T = Trace of Precipitation, MM = Missing Value Source: NWS Daily Summary

Daily Weather History Graph

Daily Weather History Graph

Search for Another Location

Airport or City:

Trip Planner

Search our weather history database for the weather conditions in past years. The results will help you decide how hot, cold, wet, or windy it might be!

Date:

Astronomy

Dec. 07, 2013 Rise Set
Actual Time 6:57 AM CST 5:02 PM CST
Civil Twilight 6:29 AM CST 5:29 PM CST
Nautical Twilight 5:59 AM CST 6:00 PM CST
Astronomical Twilight 5:29 AM CST 6:29 PM CST
Moon 10:53 AM CST (12/7) 10:31 PM CST (12/7)
Length of Visible Light 10h 59m
Length of Day
10h 05m
Waxing Crescent, 29% of the Moon is Illuminated
Dec 7
Waxing Crescent
Dec 9
First Quarter
Dec 17
Full
Dec 25
Last Quarter
Jan 1
New

Hourly Weather History & Observations

Time (CST) Temp. Windchill Dew Point Humidity Pressure Visibility Wind Dir Wind Speed Gust Speed Precip Events Conditions
12:53 AM 30.9 °F 21.7 °F 28.0 °F 89% 30.42 in 10.0 mi NNE 11.5 mph - N/A   Overcast
1:53 AM 30.0 °F 20.0 °F 27.0 °F 88% 30.42 in 10.0 mi North 12.7 mph 19.6 mph N/A   Overcast
2:53 AM 30.0 °F 21.7 °F 27.0 °F 88% 30.42 in 10.0 mi NNE 9.2 mph - N/A   Overcast
3:37 AM 30.2 °F 20.8 °F 26.6 °F 86% 30.43 in 10.0 mi NNE 11.5 mph - N/A   Overcast
3:53 AM 30.0 °F 20.0 °F 27.0 °F 88% 30.43 in 10.0 mi NNE 12.7 mph 19.6 mph N/A   Overcast
4:53 AM 30.0 °F 19.1 °F 26.1 °F 85% 30.44 in 10.0 mi NNE 15.0 mph 21.9 mph N/A   Overcast
5:53 AM 30.0 °F 22.4 °F 26.1 °F 85% 30.46 in 10.0 mi North 8.1 mph - N/A   Overcast
6:53 AM 30.0 °F 20.5 °F 26.1 °F 85% 30.47 in 10.0 mi NNE 11.5 mph - N/A   Overcast
7:53 AM 30.0 °F 19.1 °F 25.0 °F 82% 30.48 in 10.0 mi North 15.0 mph 23.0 mph N/A   Overcast
8:53 AM 30.0 °F 20.0 °F 25.0 °F 82% 30.50 in 10.0 mi North 12.7 mph - N/A   Overcast
9:53 AM 30.0 °F 19.1 °F 25.0 °F 82% 30.51 in 10.0 mi NNE 15.0 mph - N/A   Overcast
10:20 AM 30.2 °F 18.9 °F 24.8 °F 80% 30.48 in 10.0 mi NE 16.1 mph 21.9 mph N/A   Overcast
10:53 AM 32.0 °F 22.1 °F 25.0 °F 75% 30.49 in 10.0 mi NNE 13.8 mph - N/A   Overcast
11:53 AM 32.0 °F 22.5 °F 25.0 °F 75% 30.45 in 10.0 mi North 12.7 mph - N/A   Overcast
12:53 PM 33.1 °F 24.4 °F 25.0 °F 72% 30.43 in 10.0 mi NNE 11.5 mph - N/A   Overcast
1:53 PM 34.0 °F 24.6 °F 26.1 °F 73% 30.40 in 10.0 mi NE 13.8 mph - N/A   Overcast
2:53 PM 33.1 °F 23.0 °F 26.1 °F 75% 30.38 in 10.0 mi NE 15.0 mph - N/A   Overcast
3:53 PM 30.9 °F 21.2 °F 25.0 °F 79% 30.37 in 10.0 mi NE 12.7 mph - N/A   Overcast
4:53 PM 30.0 °F 21.1 °F 25.0 °F 82% 30.38 in 10.0 mi NE 10.4 mph - 0.00 in   Overcast
5:53 PM 30.0 °F 20.5 °F 25.0 °F 82% 30.36 in 10.0 mi NNE 11.5 mph - 0.00 in   Overcast
6:53 PM 30.0 °F 20.0 °F 25.0 °F 82% 30.37 in 10.0 mi NE 12.7 mph - N/A   Overcast
7:53 PM 30.0 °F 22.4 °F 26.1 °F 85% 30.35 in 10.0 mi NE 8.1 mph - N/A   Overcast
8:53 PM 30.0 °F 22.4 °F 26.1 °F 85% 30.36 in 9.0 mi NNE 8.1 mph - N/A   Overcast
9:53 PM 30.0 °F 22.4 °F 26.1 °F 85% 30.36 in 8.0 mi NE 8.1 mph - N/A   Overcast
10:50 PM 30.2 °F 24.3 °F 26.6 °F 86% 30.37 in 6.0 mi North 5.8 mph - N/A   Overcast
10:53 PM 30.0 °F 23.2 °F 27.0 °F 88% 30.37 in 6.0 mi North 6.9 mph - N/A   Overcast
11:51 PM 30.2 °F 24.3 °F 28.4 °F 93% 30.35 in 2.5 mi North 5.8 mph - N/A   Overcast
11:53 PM 30.0 °F 25.2 °F 28.0 °F 92% 30.35 in 2.5 mi North 4.6 mph - N/A   Overcast